Time,TemperatureF,DewpointF,PressureIn,WindDirection,WindDirectionDegrees,WindSpeedMPH,WindSpeedGustMPH,Humidity,HourlyPrecipIn,Conditions,Clouds,dailyrainin,SoftwareType,DateUTC
2013-02-20 00:00:00,43.9,39.1,29.92,WSW,248,0.4,1.6,83,0.00,,,0.00,WUHU216HW,2013-02-20 05:00:00,
2013-02-20 00:05:00,43.9,39.1,29.92,West,270,1.8,1.8,83,0.00,,,0.00,WUHU216HW,2013-02-20 05:05:00,
2013-02-20 00:10:00,43.7,38.9,29.92,West,270,0.7,1.8,83,0.00,,,0.00,WUHU216HW,2013-02-20 05:10:00,
2013-02-20 00:15:00,43.6,38.7,29.92,West,270,0.4,1.6,83,0.00,,,0.00,WUHU216HW,2013-02-20 05:15:00,
2013-02-20 00:20:00,43.6,38.7,29.92,WSW,248,0.4,1.1,83,0.00,,,0.00,WUHU216HW,2013-02-20 05:20:00,
2013-02-20 00:25:00,43.6,38.7,29.93,West,270,0.4,1.1,83,0.00,,,0.00,WUHU216HW,2013-02-20 05:25:00,
2013-02-20 00:30:00,43.4,38.5,29.92,West,270,0.2,0.9,83,0.00,,,0.00,WUHU216HW,2013-02-20 05:30:00,
2013-02-20 00:35:00,43.2,38.3,29.92,West,270,0.7,0.7,83,0.00,,,0.00,WUHU216HW,2013-02-20 05:35:00,
2013-02-20 00:40:00,43.2,38.3,29.92,West,270,0.9,1.1,83,0.00,,,0.00,WUHU216HW,2013-02-20 05:40:00,
2013-02-20 00:45:00,43.0,38.2,29.92,West,270,0.9,1.8,83,0.00,,,0.00,WUHU216HW,2013-02-20 05:45:00,
2013-02-20 00:50:00,42.8,38.0,29.92,WSW,248,1.1,2.0,83,0.00,,,0.00,WUHU216HW,2013-02-20 05:50:00,
2013-02-20 00:55:00,42.7,37.8,29.92,West,270,1.6,2.0,83,0.00,,,0.00,WUHU216HW,2013-02-20 05:55:00,
2013-02-20 01:00:00,42.5,37.6,29.92,West,270,1.1,2.5,83,0.00,,,0.00,WUHU216HW,2013-02-20 06:00:00,
2013-02-20 01:05:00,42.3,37.4,29.93,West,270,2.2,2.5,83,0.00,,,0.00,WUHU216HW,2013-02-20 06:05:00,
2013-02-20 01:10:00,42.3,37.4,29.93,West,270,2.0,2.5,83,0.00,,,0.00,WUHU216HW,2013-02-20 06:10:00,
2013-02-20 01:15:00,42.1,37.3,29.93,SW,225,1.8,2.5,83,0.00,,,0.00,WUHU216HW,2013-02-20 06:15:00,
2013-02-20 01:20:00,42.1,37.0,29.93,WSW,248,1.1,2.5,82,0.00,,,0.00,WUHU216HW,2013-02-20 06:20:00,
2013-02-20 01:25:00,41.9,36.8,29.93,West,270,1.1,1.8,82,0.00,,,0.00,WUHU216HW,2013-02-20 06:25:00,
2013-02-20 01:30:00,41.9,36.8,29.94,West,270,0.7,1.8,82,0.00,,,0.00,WUHU216HW,2013-02-20 06:30:00,
2013-02-20 01:35:00,41.8,36.6,29.94,WSW,248,0.2,1.3,82,0.00,,,0.00,WUHU216HW,2013-02-20 06:35:00,
2013-02-20 01:40:00,41.6,36.1,29.94,West,270,1.6,1.8,81,0.00,,,0.00,WUHU216HW,2013-02-20 06:40:00,
2013-02-20 01:45:00,41.4,35.9,29.94,West,270,0.4,1.8,81,0.00,,,0.00,WUHU216HW,2013-02-20 06:45:00,
2013-02-20 01:50:00,41.2,35.7,29.95,West,270,1.1,1.8,81,0.00,,,0.00,WUHU216HW,2013-02-20 06:50:00,
2013-02-20 01:55:00,41.0,35.3,29.95,WNW,293,0.4,1.8,80,0.00,,,0.00,WUHU216HW,2013-02-20 06:55:00,
2013-02-20 02:00:00,40.9,34.8,29.95,WNW,293,0.9,1.8,79,0.00,,,0.00,WUHU216HW,2013-02-20 07:00:00,
2013-02-20 02:05:00,40.7,34.3,29.95,WNW,293,1.1,1.8,78,0.00,,,0.00,WUHU216HW,2013-02-20 07:05:00,
2013-02-20 02:10:00,40.7,33.9,29.95,WNW,293,1.1,2.2,77,0.00,,,0.00,WUHU216HW,2013-02-20 07:10:00,
2013-02-20 02:15:00,40.7,33.7,29.95,NW,315,1.8,2.7,76,0.00,,,0.00,WUHU216HW,2013-02-20 07:15:00,
2013-02-20 02:20:00,40.5,32.9,29.95,WNW,293,1.8,3.4,74,0.00,,,0.00,WUHU216HW,2013-02-20 07:20:00,
2013-02-20 02:25:00,40.3,32.7,29.95,WNW,293,1.1,3.4,74,0.00,,,0.00,WUHU216HW,2013-02-20 07:25:00,
2013-02-20 02:30:00,40.3,32.3,29.95,WNW,293,1.8,2.9,73,0.00,,,0.00,WUHU216HW,2013-02-20 07:30:00,
2013-02-20 02:35:00,40.1,31.5,29.95,WNW,293,1.3,2.9,71,0.00,,,0.00,WUHU216HW,2013-02-20 07:35:00,
2013-02-20 02:40:00,40.0,31.3,29.95,NW,315,2.2,2.9,71,0.00,,,0.00,WUHU216HW,2013-02-20 07:40:00,
2013-02-20 02:45:00,40.0,31.0,29.95,NW,315,0.4,2.5,70,0.00,,,0.00,WUHU216HW,2013-02-20 07:45:00,
2013-02-20 02:50:00,40.0,30.6,29.95,WNW,293,1.3,2.2,69,0.00,,,0.00,WUHU216HW,2013-02-20 07:50:00,
2013-02-20 02:55:00,39.8,29.6,29.95,NW,315,0.9,1.8,67,0.00,,,0.00,WUHU216HW,2013-02-20 07:55:00,
2013-02-20 03:00:00,39.6,29.9,29.95,NW,315,1.1,2.0,68,0.00,,,0.00,WUHU216HW,2013-02-20 08:00:00,
2013-02-20 03:05:00,39.6,29.4,29.95,West,270,0.7,2.0,67,0.00,,,0.00,WUHU216HW,2013-02-20 08:05:00,
2013-02-20 03:10:00,39.6,29.4,29.95,NW,315,0.4,1.8,67,0.00,,,0.00,WUHU216HW,2013-02-20 08:10:00,
2013-02-20 03:15:00,39.6,29.4,29.95,NW,315,1.3,1.6,67,0.00,,,0.00,WUHU216HW,2013-02-20 08:15:00,
2013-02-20 03:20:00,39.2,28.7,29.95,NW,315,0.4,1.8,66,0.00,,,0.00,WUHU216HW,2013-02-20 08:20:00,
2013-02-20 03:25:00,39.2,29.1,29.95,West,270,0.7,1.8,67,0.00,,,0.00,WUHU216HW,2013-02-20 08:25:00,
2013-02-20 03:30:00,39.2,29.1,29.95,West,270,0.2,0.9,67,0.00,,,0.00,WUHU216HW,2013-02-20 08:30:00,
2013-02-20 03:35:00,39.2,29.1,29.95,West,270,0.9,1.1,67,0.00,,,0.00,WUHU216HW,2013-02-20 08:35:00,
2013-02-20 03:40:00,38.9,28.8,29.95,West,270,0.9,2.0,67,0.00,,,0.00,WUHU216HW,2013-02-20 08:40:00,
2013-02-20 03:45:00,38.7,28.6,29.95,West,270,0.9,2.0,67,0.00,,,0.00,WUHU216HW,2013-02-20 08:45:00,
2013-02-20 03:50:00,38.5,28.4,29.95,WNW,293,0.4,1.1,67,0.00,,,0.00,WUHU216HW,2013-02-20 08:50:00,
2013-02-20 03:55:00,38.3,28.7,29.95,West,270,0.7,1.3,68,0.00,,,0.00,WUHU216HW,2013-02-20 08:55:00,
2013-02-20 04:00:00,38.3,28.7,29.95,West,270,0.4,1.3,68,0.00,,,0.00,WUHU216HW,2013-02-20 09:00:00,
2013-02-20 04:05:00,38.2,28.5,29.96,WNW,293,0.0,1.3,68,0.00,,,0.00,WUHU216HW,2013-02-20 09:05:00,
2013-02-20 04:10:00,38.2,28.5,29.96,West,270,0.0,0.4,68,0.00,,,0.00,WUHU216HW,2013-02-20 09:10:00,
2013-02-20 04:15:00,37.8,28.5,29.96,WSW,248,0.4,0.4,69,0.00,,,0.00,WUHU216HW,2013-02-20 09:15:00,
2013-02-20 04:20:00,37.8,28.5,29.97,WSW,248,0.2,0.4,69,0.00,,,0.00,WUHU216HW,2013-02-20 09:20:00,
2013-02-20 04:25:00,37.6,28.5,29.97,West,270,0.0,0.4,69,0.00,,,0.00,WUHU216HW,2013-02-20 09:25:00,
2013-02-20 04:30:00,37.4,28.6,29.98,West,270,0.0,0.4,70,0.00,,,0.00,WUHU216HW,2013-02-20 09:30:00,
2013-02-20 04:35:00,37.1,28.3,29.98,West,270,0.0,0.0,70,0.00,,,0.00,WUHU216HW,2013-02-20 09:35:00,
2013-02-20 04:40:00,37.1,28.6,29.98,South,180,0.0,0.0,71,0.00,,,0.00,WUHU216HW,2013-02-20 09:40:00,
2013-02-20 04:45:00,36.7,28.3,29.98,SSW,203,0.0,0.0,71,0.00,,,0.00,WUHU216HW,2013-02-20 09:45:00,
2013-02-20 04:50:00,36.5,28.1,29.99,SSW,203,0.0,0.0,71,0.00,,,0.00,WUHU216HW,2013-02-20 09:50:00,
2013-02-20 04:55:00,36.4,28.2,29.99,West,270,0.0,0.0,72,0.00,,,0.00,WUHU216HW,2013-02-20 09:55:00,
2013-02-20 05:00:00,36.4,28.2,29.98,WSW,248,0.0,0.0,72,0.00,,,0.00,WUHU216HW,2013-02-20 10:00:00,
2013-02-20 05:05:00,36.2,28.0,29.99,West,270,0.0,0.0,72,0.00,,,0.00,WUHU216HW,2013-02-20 10:05:00,
2013-02-20 05:10:00,36.0,28.2,29.99,West,270,0.0,0.2,73,0.00,,,0.00,WUHU216HW,2013-02-20 10:10:00,
2013-02-20 05:15:00,35.8,27.6,29.99,West,270,0.0,0.4,72,0.00,,,0.00,WUHU216HW,2013-02-20 10:15:00,
2013-02-20 05:20:00,35.6,27.5,29.99,WSW,248,0.0,0.4,72,0.00,,,0.00,WUHU216HW,2013-02-20 10:20:00,
2013-02-20 05:25:00,35.6,27.8,30.00,West,270,0.0,0.0,73,0.00,,,0.00,WUHU216HW,2013-02-20 10:25:00,
2013-02-20 05:30:00,35.3,27.5,30.00,SW,225,0.0,0.0,73,0.00,,,0.00,WUHU216HW,2013-02-20 10:30:00,
2013-02-20 05:35:00,35.1,27.3,30.00,West,270,0.0,0.0,73,0.00,,,0.00,WUHU216HW,2013-02-20 10:35:00,
2013-02-20 05:40:00,34.9,27.1,30.00,SW,225,0.2,0.7,73,0.00,,,0.00,WUHU216HW,2013-02-20 10:40:00,
2013-02-20 05:45:00,34.9,27.1,30.00,SW,225,0.0,0.7,73,0.00,,,0.00,WUHU216HW,2013-02-20 10:45:00,
2013-02-20 05:50:00,34.6,26.7,30.00,SSW,203,0.0,0.2,73,0.00,,,0.00,WUHU216HW,2013-02-20 10:50:00,
2013-02-20 05:55:00,34.4,26.6,30.01,SSW,203,0.0,0.0,73,0.00,,,0.00,WUHU216HW,2013-02-20 10:55:00,
2013-02-20 06:00:00,34.2,26.4,30.01,SSE,158,0.0,0.4,73,0.00,,,0.00,WUHU216HW,2013-02-20 11:00:00,
2013-02-20 06:05:00,34.2,26.4,30.01,South,180,0.0,0.4,73,0.00,,,0.00,WUHU216HW,2013-02-20 11:05:00,
2013-02-20 06:10:00,34.0,26.2,30.02,South,180,0.0,0.2,73,0.00,,,0.00,WUHU216HW,2013-02-20 11:10:00,
2013-02-20 06:15:00,33.8,26.3,30.01,SSE,158,0.0,0.2,74,0.00,,,0.00,WUHU216HW,2013-02-20 11:15:00,
2013-02-20 06:20:00,33.8,26.3,30.01,SE,135,0.0,0.0,74,0.00,,,0.00,WUHU216HW,2013-02-20 11:20:00,
2013-02-20 06:25:00,33.8,26.3,30.01,SE,135,0.0,0.2,74,0.00,,,0.00,WUHU216HW,2013-02-20 11:25:00,
2013-02-20 06:30:00,33.7,26.2,30.01,SE,135,0.0,0.2,74,0.00,,,0.00,WUHU216HW,2013-02-20 11:30:00,
2013-02-20 06:35:00,33.5,26.0,30.01,SE,135,0.0,0.0,74,0.00,,,0.00,WUHU216HW,2013-02-20 11:35:00,
2013-02-20 06:40:00,33.5,26.0,30.01,SE,135,0.0,0.0,74,0.00,,,0.00,WUHU216HW,2013-02-20 11:40:00,
2013-02-20 06:45:00,33.3,25.8,30.01,SSW,203,0.0,0.2,74,0.00,,,0.00,WUHU216HW,2013-02-20 11:45:00,
2013-02-20 06:50:00,33.1,25.7,30.01,SW,225,0.0,0.2,74,0.00,,,0.00,WUHU216HW,2013-02-20 11:50:00,
2013-02-20 06:55:00,33.1,26.0,30.02,West,270,0.0,0.0,75,0.00,,,0.00,WUHU216HW,2013-02-20 11:55:00,
2013-02-20 07:00:00,32.9,25.8,30.02,North,0,0.0,0.4,75,0.00,,,0.00,WUHU216HW,2013-02-20 12:00:00,
2013-02-20 07:05:00,32.9,25.8,30.02,ENE,68,0.0,0.4,75,0.00,,,0.00,WUHU216HW,2013-02-20 12:05:00,
2013-02-20 07:10:00,32.8,25.7,30.03,ENE,68,0.0,0.4,75,0.00,,,0.00,WUHU216HW,2013-02-20 12:10:00,
2013-02-20 07:15:00,32.8,26.0,30.02,SW,225,0.4,0.4,76,0.00,,,0.00,WUHU216HW,2013-02-20 12:15:00,
2013-02-20 07:20:00,32.8,26.0,30.03,SW,225,0.7,1.1,76,0.00,,,0.00,WUHU216HW,2013-02-20 12:20:00,
2013-02-20 07:25:00,32.8,26.0,30.03,SW,225,0.2,1.1,76,0.00,,,0.00,WUHU216HW,2013-02-20 12:25:00,
2013-02-20 07:30:00,32.6,25.8,30.04,SW,225,0.0,0.9,76,0.00,,,0.00,WUHU216HW,2013-02-20 12:30:00,
2013-02-20 07:35:00,32.6,25.8,30.03,ESE,113,0.0,0.4,76,0.00,,,0.00,WUHU216HW,2013-02-20 12:35:00,
2013-02-20 07:40:00,32.6,25.8,30.04,East,90,0.0,0.4,76,0.00,,,0.00,WUHU216HW,2013-02-20 12:40:00,
2013-02-20 07:45:00,32.4,25.7,30.04,NNE,23,0.0,0.4,76,0.00,,,0.00,WUHU216HW,2013-02-20 12:45:00,
2013-02-20 07:50:00,32.4,25.7,30.04,NNE,23,0.0,0.2,76,0.00,,,0.00,WUHU216HW,2013-02-20 12:50:00,
2013-02-20 07:55:00,32.8,26.3,30.04,North,0,0.0,0.0,77,0.00,,,0.00,WUHU216HW,2013-02-20 12:55:00,
2013-02-20 08:00:00,33.1,27.0,30.04,West,270,0.0,0.0,78,0.00,,,0.00,WUHU216HW,2013-02-20 13:00:00,
2013-02-20 08:05:00,33.5,27.0,30.04,NW,315,0.0,0.2,77,0.00,,,0.00,WUHU216HW,2013-02-20 13:05:00,
2013-02-20 08:10:00,34.0,27.5,30.04,West,270,0.0,0.2,77,0.00,,,0.00,WUHU216HW,2013-02-20 13:10:00,
2013-02-20 08:15:00,34.6,27.7,30.04,West,270,0.0,0.2,76,0.00,,,0.00,WUHU216HW,2013-02-20 13:15:00,
2013-02-20 08:20:00,34.9,28.1,30.04,West,270,0.0,0.0,76,0.00,,,0.00,WUHU216HW,2013-02-20 13:20:00,
2013-02-20 08:25:00,35.5,28.3,30.05,NNW,338,0.0,0.2,75,0.00,,,0.00,WUHU216HW,2013-02-20 13:25:00,
2013-02-20 08:30:00,35.8,28.3,30.05,WNW,293,0.7,0.9,74,0.00,,,0.00,WUHU216HW,2013-02-20 13:30:00,
2013-02-20 08:35:00,36.4,28.5,30.05,SW,225,0.4,2.2,73,0.00,,,0.00,WUHU216HW,2013-02-20 13:35:00,
2013-02-20 08:40:00,36.9,29.1,30.05,WSW,248,0.7,2.2,73,0.00,,,0.00,WUHU216HW,2013-02-20 13:40:00,
2013-02-20 08:45:00,37.4,29.0,30.05,WSW,248,1.1,2.2,71,0.00,,,0.00,WUHU216HW,2013-02-20 13:45:00,
2013-02-20 08:50:00,37.6,29.1,30.05,WSW,248,0.2,2.2,71,0.00,,,0.00,WUHU216HW,2013-02-20 13:50:00,
2013-02-20 08:55:00,38.2,28.9,30.05,WNW,293,0.4,2.5,69,0.00,,,0.00,WUHU216HW,2013-02-20 13:55:00,
2013-02-20 09:00:00,38.3,28.7,30.05,NNW,338,1.1,2.5,68,0.00,,,0.00,WUHU216HW,2013-02-20 14:00:00,
2013-02-20 09:05:00,38.9,28.8,30.05,WSW,248,2.2,2.7,67,0.00,,,0.00,WUHU216HW,2013-02-20 14:05:00,
2013-02-20 09:10:00,39.2,28.7,30.04,SSW,203,1.1,3.8,66,0.00,,,0.00,WUHU216HW,2013-02-20 14:10:00,
2013-02-20 09:15:00,39.4,28.5,30.04,West,270,1.6,3.8,65,0.00,,,0.00,WUHU216HW,2013-02-20 14:15:00,
2013-02-20 09:20:00,40.0,28.4,30.04,West,270,1.8,2.7,63,0.00,,,0.00,WUHU216HW,2013-02-20 14:20:00,
2013-02-20 09:25:00,40.1,28.1,30.04,WNW,293,1.1,3.1,62,0.00,,,0.00,WUHU216HW,2013-02-20 14:25:00,
2013-02-20 09:30:00,40.1,27.7,30.04,NNW,338,2.7,3.1,61,0.00,,,0.00,WUHU216HW,2013-02-20 14:30:00,
2013-02-20 09:35:00,40.3,27.5,30.04,West,270,2.5,4.0,60,0.00,,,0.00,WUHU216HW,2013-02-20 14:35:00,
2013-02-20 09:40:00,40.5,26.8,30.04,SW,225,1.8,4.0,58,0.00,,,0.00,WUHU216HW,2013-02-20 14:40:00,
2013-02-20 09:45:00,40.7,26.1,30.04,West,270,2.2,3.1,56,0.00,,,0.00,WUHU216HW,2013-02-20 14:45:00,
2013-02-20 09:50:00,40.7,26.1,30.04,NNW,338,1.1,3.1,56,0.00,,,0.00,WUHU216HW,2013-02-20 14:50:00,
2013-02-20 09:55:00,40.9,25.8,30.04,WNW,293,1.8,2.9,55,0.00,,,0.00,WUHU216HW,2013-02-20 14:55:00,
2013-02-20 10:00:00,41.0,25.1,30.04,West,270,2.0,3.8,53,0.00,,,0.00,WUHU216HW,2013-02-20 15:00:00,
2013-02-20 10:05:00,41.0,24.2,30.03,WSW,248,2.5,4.5,51,0.00,,,0.00,WUHU216HW,2013-02-20 15:05:00,
2013-02-20 10:10:00,41.2,24.4,30.04,West,270,4.5,4.5,51,0.00,,,0.00,WUHU216HW,2013-02-20 15:10:00,
2013-02-20 10:15:00,41.2,24.4,30.04,NNW,338,0.7,4.5,51,0.00,,,0.00,WUHU216HW,2013-02-20 15:15:00,
2013-02-20 10:20:00,41.4,24.1,30.04,SW,225,3.8,3.8,50,0.00,,,0.00,WUHU216HW,2013-02-20 15:20:00,
2013-02-20 10:25:00,41.4,23.6,30.05,NW,315,2.5,6.0,49,0.00,,,0.00,WUHU216HW,2013-02-20 15:25:00,
2013-02-20 10:30:00,41.6,23.8,30.04,WSW,248,1.6,6.0,49,0.00,,,0.00,WUHU216HW,2013-02-20 15:30:00,
2013-02-20 10:35:00,41.8,22.9,30.05,NW,315,3.4,4.0,47,0.00,,,0.00,WUHU216HW,2013-02-20 15:35:00,
2013-02-20 10:40:00,42.1,23.8,30.05,West,270,2.2,4.3,48,0.00,,,0.00,WUHU216HW,2013-02-20 15:40:00,
2013-02-20 10:45:00,42.1,23.8,30.05,West,270,1.6,4.3,48,0.00,,,0.00,WUHU216HW,2013-02-20 15:45:00,
2013-02-20 10:50:00,42.1,23.8,30.05,North,0,1.8,4.0,48,0.00,,,0.00,WUHU216HW,2013-02-20 15:50:00,
2013-02-20 10:55:00,42.3,23.9,30.04,WNW,293,3.4,3.6,48,0.00,,,0.00,WUHU216HW,2013-02-20 15:55:00,
2013-02-20 11:00:00,42.5,24.7,30.04,NNW,338,3.8,3.8,49,0.00,,,0.00,WUHU216HW,2013-02-20 16:00:00,
2013-02-20 11:05:00,42.8,21.2,30.04,SW,225,6.3,9.8,42,0.00,,,0.00,WUHU216HW,2013-02-20 16:05:00,
2013-02-20 11:10:00,43.2,23.2,30.05,SW,225,3.8,9.8,45,0.00,,,0.00,WUHU216HW,2013-02-20 16:10:00,
2013-02-20 11:15:00,43.2,23.2,30.04,SW,225,3.1,6.9,45,0.00,,,0.00,WUHU216HW,2013-02-20 16:15:00,
2013-02-20 11:20:00,43.6,23.0,30.04,WNW,293,3.4,4.9,44,0.00,,,0.00,WUHU216HW,2013-02-20 16:20:00,
2013-02-20 11:25:00,43.9,22.8,30.04,WSW,248,4.7,7.2,43,0.00,,,0.00,WUHU216HW,2013-02-20 16:25:00,
2013-02-20 11:30:00,44.1,23.0,30.04,WNW,293,3.4,7.2,43,0.00,,,0.00,WUHU216HW,2013-02-20 16:30:00,
2013-02-20 11:35:00,44.3,23.0,30.05,WSW,248,5.1,6.3,43,0.00,,,0.00,WUHU216HW,2013-02-20 16:35:00,
2013-02-20 11:40:00,44.6,19.8,30.04,North,0,2.9,6.3,37,0.00,,,0.00,WUHU216HW,2013-02-20 16:40:00,
2013-02-20 11:45:00,45.0,22.2,30.04,West,270,4.9,4.9,40,0.00,,,0.00,WUHU216HW,2013-02-20 16:45:00,
2013-02-20 11:50:00,45.2,19.6,30.03,NW,315,4.0,5.4,36,0.00,,,0.00,WUHU216HW,2013-02-20 16:50:00,
2013-02-20 11:55:00,45.5,20.6,30.03,NW,315,3.4,5.4,37,0.00,,,0.00,WUHU216HW,2013-02-20 16:55:00,
2013-02-20 12:00:00,45.7,22.8,30.03,SW,225,3.8,4.5,40,0.00,,,0.00,WUHU216HW,2013-02-20 17:00:00,
2013-02-20 12:05:00,46.1,23.0,30.03,WSW,248,2.5,6.0,40,0.00,,,0.00,WUHU216HW,2013-02-20 17:05:00,
2013-02-20 12:10:00,46.4,22.8,30.03,WSW,248,7.8,7.8,39,0.00,,,0.00,WUHU216HW,2013-02-20 17:10:00,
2013-02-20 12:14:00,46.8,23.0,30.03,WNW,293,2.5,7.8,39,0.00,,,0.00,WUHU216HW,2013-02-20 17:14:00,
2013-02-20 12:19:00,47.0,22.6,30.03,SW,225,2.5,7.8,38,0.00,,,0.00,WUHU216HW,2013-02-20 17:19:00,
2013-02-20 12:25:00,47.2,22.1,30.03,WNW,293,2.7,9.4,37,0.00,,,0.00,WUHU216HW,2013-02-20 17:25:00,
2013-02-20 12:30:00,47.5,21.7,30.03,WSW,248,5.4,9.4,36,0.00,,,0.00,WUHU216HW,2013-02-20 17:30:00,
2013-02-20 12:35:00,47.9,22.1,30.02,West,270,3.4,7.6,36,0.00,,,0.00,WUHU216HW,2013-02-20 17:35:00,
2013-02-20 12:40:00,48.4,23.9,30.02,WNW,293,2.5,7.6,38,0.00,,,0.00,WUHU216HW,2013-02-20 17:40:00,
2013-02-20 12:45:00,48.8,24.1,30.02,WNW,293,6.3,6.3,38,0.00,,,0.00,WUHU216HW,2013-02-20 17:45:00,
2013-02-20 12:50:00,49.3,23.3,30.02,SW,225,4.3,6.3,36,0.00,,,0.00,WUHU216HW,2013-02-20 17:50:00,
2013-02-20 12:54:00,49.5,24.1,30.01,WSW,248,1.6,6.5,37,0.00,,,0.00,WUHU216HW,2013-02-20 17:54:00,
2013-02-20 12:59:00,49.9,22.4,30.01,WNW,293,4.7,8.7,34,0.00,,,0.00,WUHU216HW,2013-02-20 17:59:00,
2013-02-20 13:04:00,50.0,25.3,30.00,SW,225,3.4,8.7,38,0.00,,,0.00,WUHU216HW,2013-02-20 18:04:00,
2013-02-20 13:09:00,50.2,22.7,30.00,West,270,3.4,5.1,34,0.00,,,0.00,WUHU216HW,2013-02-20 18:09:00,
2013-02-20 13:14:00,50.4,21.5,30.00,NW,315,2.9,4.9,32,0.00,,,0.00,WUHU216HW,2013-02-20 18:14:00,
2013-02-20 13:19:00,50.6,23.1,29.99,WNW,293,1.3,4.9,34,0.00,,,0.00,WUHU216HW,2013-02-20 18:19:00,
2013-02-20 13:24:00,50.8,24.6,29.99,NW,315,4.3,5.8,36,0.00,,,0.00,WUHU216HW,2013-02-20 18:24:00,
2013-02-20 13:29:00,50.8,23.9,29.99,West,270,1.3,5.8,35,0.00,,,0.00,WUHU216HW,2013-02-20 18:29:00,
2013-02-20 13:34:00,51.1,23.5,29.99,West,270,3.4,6.3,34,0.00,,,0.00,WUHU216HW,2013-02-20 18:34:00,
2013-02-20 13:39:00,51.5,23.1,29.99,North,0,3.4,6.3,33,0.00,,,0.00,WUHU216HW,2013-02-20 18:39:00,
2013-02-20 13:44:00,51.8,23.5,29.99,NW,315,4.3,5.8,33,0.00,,,0.00,WUHU216HW,2013-02-20 18:44:00,
2013-02-20 13:49:00,51.7,24.0,29.99,WNW,293,1.8,4.7,34,0.00,,,0.00,WUHU216HW,2013-02-20 18:49:00,
2013-02-20 13:54:00,51.3,23.7,29.98,SSE,158,2.2,4.3,34,0.00,,,0.00,WUHU216HW,2013-02-20 18:54:00,
2013-02-20 13:59:00,51.1,22.9,29.98,West,270,1.8,4.0,33,0.00,,,0.00,WUHU216HW,2013-02-20 18:59:00,
2013-02-20 14:04:00,51.5,23.1,29.98,WSW,248,1.1,4.9,33,0.00,,,0.00,WUHU216HW,2013-02-20 19:04:00,
2013-02-20 14:09:00,51.7,22.6,29.98,West,270,4.0,4.9,32,0.00,,,0.00,WUHU216HW,2013-02-20 19:09:00,
2013-02-20 14:14:00,51.8,24.1,29.98,SW,225,1.1,6.7,34,0.00,,,0.00,WUHU216HW,2013-02-20 19:14:00,
2013-02-20 14:19:00,52.0,25.7,29.98,SW,225,4.0,6.7,36,0.00,,,0.00,WUHU216HW,2013-02-20 19:19:00,
2013-02-20 14:24:00,52.2,25.2,29.98,West,270,2.7,5.6,35,0.00,,,0.00,WUHU216HW,2013-02-20 19:24:00,
2013-02-20 14:29:00,52.4,26.7,29.98,NW,315,1.1,5.6,37,0.00,,,0.00,WUHU216HW,2013-02-20 19:29:00,
2013-02-20 14:34:00,52.2,23.8,29.98,West,270,2.7,4.7,33,0.00,,,0.00,WUHU216HW,2013-02-20 19:34:00,
2013-02-20 14:39:00,52.2,24.5,29.97,WSW,248,1.6,4.7,34,0.00,,,0.00,WUHU216HW,2013-02-20 19:39:00,
2013-02-20 14:44:00,52.4,23.9,29.98,West,270,3.1,4.5,33,0.00,,,0.00,WUHU216HW,2013-02-20 19:44:00,
2013-02-20 14:49:00,52.4,23.9,29.98,WNW,293,1.1,4.5,33,0.00,,,0.00,WUHU216HW,2013-02-20 19:49:00,
2013-02-20 14:54:00,52.6,24.1,29.97,NW,315,2.5,4.3,33,0.00,,,0.00,WUHU216HW,2013-02-20 19:54:00,
2013-02-20 14:59:00,52.4,23.3,29.97,WSW,248,2.5,5.1,32,0.00,,,0.00,WUHU216HW,2013-02-20 19:59:00,
2013-02-20 15:04:00,52.6,22.8,29.97,WNW,293,3.1,6.9,31,0.00,,,0.00,WUHU216HW,2013-02-20 20:04:00,
2013-02-20 15:09:00,52.9,23.0,29.97,West,270,4.0,6.9,31,0.00,,,0.00,WUHU216HW,2013-02-20 20:09:00,
2013-02-20 15:14:00,52.9,23.8,29.97,West,270,2.9,6.7,32,0.00,,,0.00,WUHU216HW,2013-02-20 20:14:00,
2013-02-20 15:19:00,52.9,23.8,29.96,WSW,248,4.7,8.3,32,0.00,,,0.00,WUHU216HW,2013-02-20 20:19:00,
2013-02-20 15:24:00,53.1,24.0,29.97,WNW,293,2.7,8.3,32,0.00,,,0.00,WUHU216HW,2013-02-20 20:24:00,
2013-02-20 15:29:00,53.1,24.6,29.97,West,270,0.4,4.7,33,0.00,,,0.00,WUHU216HW,2013-02-20 20:29:00,
2013-02-20 15:34:00,53.1,25.3,29.97,West,270,2.5,5.1,34,0.00,,,0.00,WUHU216HW,2013-02-20 20:34:00,
2013-02-20 15:39:00,53.3,24.8,29.97,West,270,2.9,5.1,33,0.00,,,0.00,WUHU216HW,2013-02-20 20:39:00,
2013-02-20 15:44:00,53.5,24.2,29.97,WSW,248,2.5,4.7,32,0.00,,,0.00,WUHU216HW,2013-02-20 20:44:00,
2013-02-20 15:49:00,53.3,24.8,29.97,West,270,4.9,4.9,33,0.00,,,0.00,WUHU216HW,2013-02-20 20:49:00,
2013-02-20 15:54:00,53.1,23.2,29.97,NW,315,3.4,6.3,31,0.00,,,0.00,WUHU216HW,2013-02-20 20:54:00,
2013-02-20 15:59:00,52.9,23.0,29.97,West,270,0.7,6.3,31,0.00,,,0.00,WUHU216HW,2013-02-20 20:59:00,
2013-02-20 16:04:00,52.9,23.0,29.97,West,270,2.0,3.8,31,0.00,,,0.00,WUHU216HW,2013-02-20 21:04:00,
2013-02-20 16:09:00,52.9,23.8,29.97,West,270,3.4,5.8,32,0.00,,,0.00,WUHU216HW,2013-02-20 21:09:00,
2013-02-20 16:14:00,52.7,22.2,29.97,NW,315,2.0,5.8,30,0.00,,,0.00,WUHU216HW,2013-02-20 21:14:00,
2013-02-20 16:19:00,52.6,22.1,29.97,SSW,203,1.6,5.6,30,0.00,,,0.00,WUHU216HW,2013-02-20 21:19:00,
2013-02-20 16:24:00,52.4,23.3,29.97,West,270,2.5,5.6,32,0.00,,,0.00,WUHU216HW,2013-02-20 21:24:00,
2013-02-20 16:29:00,52.2,22.4,29.97,West,270,1.8,4.5,31,0.00,,,0.00,WUHU216HW,2013-02-20 21:29:00,
2013-02-20 16:34:00,52.2,22.4,29.97,West,270,3.6,3.6,31,0.00,,,0.00,WUHU216HW,2013-02-20 21:34:00,
2013-02-20 16:39:00,52.0,22.2,29.97,WSW,248,2.0,4.5,31,0.00,,,0.00,WUHU216HW,2013-02-20 21:39:00,
2013-02-20 16:45:00,51.8,22.2,29.98,WNW,293,1.8,4.7,31,0.00,,,0.00,WUHU216HW,2013-02-20 21:45:00,
2013-02-20 16:49:00,51.8,22.8,29.98,WSW,248,1.6,4.7,32,0.00,,,0.00,WUHU216HW,2013-02-20 21:49:00,
2013-02-20 16:55:00,51.8,23.5,29.98,West,270,2.0,3.8,33,0.00,,,0.00,WUHU216HW,2013-02-20 21:55:00,
2013-02-20 16:59:00,51.7,22.6,29.98,WNW,293,2.5,2.9,32,0.00,,,0.00,WUHU216HW,2013-02-20 21:59:00,
2013-02-20 17:05:00,51.5,22.5,29.98,West,270,1.1,3.8,32,0.00,,,0.00,WUHU216HW,2013-02-20 22:05:00,
2013-02-20 17:10:00,51.5,23.1,29.98,West,270,1.8,3.8,33,0.00,,,0.00,WUHU216HW,2013-02-20 22:10:00,
2013-02-20 17:15:00,51.5,23.1,29.99,SW,225,2.5,3.8,33,0.00,,,0.00,WUHU216HW,2013-02-20 22:15:00,
2013-02-20 17:19:00,51.5,23.1,29.99,WSW,248,1.8,3.8,33,0.00,,,0.00,WUHU216HW,2013-02-20 22:19:00,
2013-02-20 17:24:00,51.3,23.0,29.99,West,270,3.4,4.9,33,0.00,,,0.00,WUHU216HW,2013-02-20 22:24:00,
2013-02-20 17:29:00,51.1,22.9,29.99,WNW,293,0.9,4.9,33,0.00,,,0.00,WUHU216HW,2013-02-20 22:29:00,
2013-02-20 17:34:00,50.9,23.3,29.99,WSW,248,1.1,3.4,34,0.00,,,0.00,WUHU216HW,2013-02-20 22:34:00,
2013-02-20 17:39:00,50.8,23.2,30.00,WSW,248,1.1,1.8,34,0.00,,,0.00,WUHU216HW,2013-02-20 22:39:00,
2013-02-20 17:44:00,50.8,23.2,30.00,WSW,248,0.0,1.8,34,0.00,,,0.00,WUHU216HW,2013-02-20 22:44:00,
2013-02-20 17:49:00,50.4,22.9,30.00,West,270,0.2,1.1,34,0.00,,,0.00,WUHU216HW,2013-02-20 22:49:00,
2013-02-20 17:54:00,50.4,22.9,30.00,WNW,293,0.0,1.1,34,0.00,,,0.00,WUHU216HW,2013-02-20 22:54:00,
2013-02-20 17:59:00,50.0,23.2,30.00,WNW,293,0.0,0.4,35,0.00,,,0.00,WUHU216HW,2013-02-20 22:59:00,
2013-02-20 18:04:00,50.0,24.0,30.01,WNW,293,0.0,0.0,36,0.00,,,0.00,WUHU216HW,2013-02-20 23:04:00,
2013-02-20 18:09:00,49.7,23.6,30.01,West,270,0.0,0.0,36,0.00,,,0.00,WUHU216HW,2013-02-20 23:09:00,
2013-02-20 18:14:00,49.5,24.1,30.00,West,270,0.0,0.0,37,0.00,,,0.00,WUHU216HW,2013-02-20 23:14:00,
2013-02-20 18:19:00,49.3,23.9,30.00,West,270,0.0,0.0,37,0.00,,,0.00,WUHU216HW,2013-02-20 23:19:00,
2013-02-20 18:24:00,49.0,23.7,30.00,West,270,0.0,0.0,37,0.00,,,0.00,WUHU216HW,2013-02-20 23:24:00,
2013-02-20 18:29:00,48.6,23.3,30.01,West,270,0.0,0.0,37,0.00,,,0.00,WUHU216HW,2013-02-20 23:29:00,
2013-02-20 18:34:00,48.2,23.7,30.01,SW,225,0.0,0.0,38,0.00,,,0.00,WUHU216HW,2013-02-20 23:34:00,
2013-02-20 18:39:00,48.2,23.7,30.02,SW,225,0.0,0.0,38,0.00,,,0.00,WUHU216HW,2013-02-20 23:39:00,
2013-02-20 18:44:00,48.1,23.5,30.02,SW,225,0.0,0.0,38,0.00,,,0.00,WUHU216HW,2013-02-20 23:44:00,
2013-02-20 18:49:00,47.9,24.0,30.02,SW,225,0.0,0.0,39,0.00,,,0.00,WUHU216HW,2013-02-20 23:49:00,
2013-02-20 18:54:00,47.7,23.9,30.02,SW,225,0.0,0.0,39,0.00,,,0.00,WUHU216HW,2013-02-20 23:54:00,
2013-02-20 18:59:00,47.0,23.2,30.02,WSW,248,0.0,0.0,39,0.00,,,0.00,WUHU216HW,2013-02-20 23:59:00,
2013-02-20 19:04:00,46.6,23.6,30.02,WSW,248,0.2,0.4,40,0.00,,,0.00,WUHU216HW,2013-02-21 00:04:00,
2013-02-20 19:09:00,46.4,23.4,30.03,WSW,248,0.0,0.4,40,0.00,,,0.00,WUHU216HW,2013-02-21 00:09:00,
2013-02-20 19:14:00,46.1,23.6,30.03,WSW,248,0.0,0.0,41,0.00,,,0.00,WUHU216HW,2013-02-21 00:14:00,
2013-02-20 19:19:00,45.7,23.3,30.03,WSW,248,0.0,0.0,41,0.00,,,0.00,WUHU216HW,2013-02-21 00:19:00,
2013-02-20 19:24:00,45.2,23.3,30.03,WSW,248,0.0,0.4,42,0.00,,,0.00,WUHU216HW,2013-02-21 00:24:00,
2013-02-20 19:29:00,44.6,22.9,30.03,WSW,248,0.0,0.4,42,0.00,,,0.00,WUHU216HW,2013-02-21 00:29:00,
2013-02-20 19:34:00,44.5,23.2,30.03,WSW,248,0.0,0.0,43,0.00,,,0.00,WUHU216HW,2013-02-21 00:34:00,
2013-02-20 19:39:00,44.3,23.0,30.03,WSW,248,0.0,0.0,43,0.00,,,0.00,WUHU216HW,2013-02-21 00:39:00,
2013-02-20 19:44:00,44.3,23.6,30.03,WSW,248,0.0,0.0,44,0.00,,,0.00,WUHU216HW,2013-02-21 00:44:00,
2013-02-20 19:49:00,44.1,24.0,30.03,WSW,248,0.0,0.0,45,0.00,,,0.00,WUHU216HW,2013-02-21 00:49:00,
2013-02-20 19:54:00,43.6,23.5,30.03,WSW,248,0.0,0.2,45,0.00,,,0.00,WUHU216HW,2013-02-21 00:54:00,
2013-02-20 19:59:00,43.2,23.2,30.04,WSW,248,0.0,0.4,45,0.00,,,0.00,WUHU216HW,2013-02-21 00:59:00,
2013-02-20 20:04:00,42.5,23.0,30.04,WSW,248,0.0,0.4,46,0.00,,,0.00,WUHU216HW,2013-02-21 01:04:00,
2013-02-20 20:09:00,42.5,23.6,30.04,SW,225,0.0,0.4,47,0.00,,,0.00,WUHU216HW,2013-02-21 01:09:00,
2013-02-20 20:14:00,42.3,23.9,30.05,SW,225,0.0,0.0,48,0.00,,,0.00,WUHU216HW,2013-02-21 01:14:00,
2013-02-20 20:19:00,42.3,23.9,30.05,SW,225,0.0,0.0,48,0.00,,,0.00,WUHU216HW,2013-02-21 01:19:00,
2013-02-20 20:24:00,41.9,23.6,30.05,West,270,0.4,0.4,48,0.00,,,0.00,WUHU216HW,2013-02-21 01:24:00,
2013-02-20 20:29:00,41.8,23.9,30.05,WNW,293,0.4,0.7,49,0.00,,,0.00,WUHU216HW,2013-02-21 01:29:00,
2013-02-20 20:34:00,41.6,23.8,30.05,NNW,338,0.0,0.7,49,0.00,,,0.00,WUHU216HW,2013-02-21 01:34:00,
2013-02-20 20:39:00,41.6,23.8,30.05,ESE,113,0.0,0.4,49,0.00,,,0.00,WUHU216HW,2013-02-21 01:39:00,
2013-02-20 20:44:00,41.4,24.1,30.05,SE,135,0.0,0.4,50,0.00,,,0.00,WUHU216HW,2013-02-21 01:44:00,
2013-02-20 20:49:00,40.7,23.4,30.05,NNW,338,0.2,0.4,50,0.00,,,0.00,WUHU216HW,2013-02-21 01:49:00,
2013-02-20 20:54:00,40.0,22.8,30.05,North,0,0.2,0.4,50,0.00,,,0.00,WUHU216HW,2013-02-21 01:54:00,
2013-02-20 20:59:00,39.8,23.0,30.06,North,0,0.0,0.4,51,0.00,,,0.00,WUHU216HW,2013-02-21 01:59:00,
2013-02-20 21:04:00,39.4,22.8,30.07,NNW,338,0.0,0.4,51,0.00,,,0.00,WUHU216HW,2013-02-21 02:04:00,
2013-02-20 21:09:00,38.9,22.7,30.07,NW,315,0.9,0.9,52,0.00,,,0.00,WUHU216HW,2013-02-21 02:09:00,
2013-02-20 21:14:00,38.7,23.0,30.07,NW,315,0.0,1.1,53,0.00,,,0.00,WUHU216HW,2013-02-21 02:14:00,
2013-02-20 21:19:00,38.9,23.6,30.08,WNW,293,0.0,1.1,54,0.00,,,0.00,WUHU216HW,2013-02-21 02:19:00,
2013-02-20 21:24:00,39.1,23.7,30.08,WSW,248,0.0,0.7,54,0.00,,,0.00,WUHU216HW,2013-02-21 02:24:00,
2013-02-20 21:29:00,39.2,23.9,30.08,NNE,23,0.0,0.0,54,0.00,,,0.00,WUHU216HW,2013-02-21 02:29:00,
2013-02-20 21:34:00,39.1,23.7,30.08,NNE,23,0.4,1.8,54,0.00,,,0.00,WUHU216HW,2013-02-21 02:34:00,
2013-02-20 21:39:00,39.2,22.6,30.09,NNW,338,0.4,1.8,51,0.00,,,0.00,WUHU216HW,2013-02-21 02:39:00,
2013-02-20 21:44:00,40.0,22.2,30.09,NNW,338,0.7,1.8,49,0.00,,,0.00,WUHU216HW,2013-02-21 02:44:00,
2013-02-20 21:49:00,40.1,22.4,30.10,North,0,1.1,1.6,49,0.00,,,0.00,WUHU216HW,2013-02-21 02:49:00,
2013-02-20 21:54:00,40.5,21.7,30.10,NNW,338,0.7,1.3,47,0.00,,,0.00,WUHU216HW,2013-02-21 02:54:00,
2013-02-20 21:59:00,40.7,21.9,30.09,North,0,0.2,1.6,47,0.00,,,0.00,WUHU216HW,2013-02-21 02:59:00,
2013-02-20 22:04:00,40.7,21.3,30.09,NNW,338,0.0,1.8,46,0.00,,,0.00,WUHU216HW,2013-02-21 03:04:00,
2013-02-20 22:09:00,40.7,20.8,30.09,North,0,1.1,1.8,45,0.00,,,0.00,WUHU216HW,2013-02-21 03:09:00,
2013-02-20 22:14:00,40.5,20.7,30.09,NNW,338,0.4,2.2,45,0.00,,,0.00,WUHU216HW,2013-02-21 03:14:00,
2013-02-20 22:19:00,40.5,19.6,30.10,West,270,1.3,2.2,43,0.00,,,0.00,WUHU216HW,2013-02-21 03:19:00,
2013-02-20 22:24:00,40.5,19.1,30.10,NNW,338,2.2,2.2,42,0.00,,,0.00,WUHU216HW,2013-02-21 03:24:00,
2013-02-20 22:29:00,40.5,19.1,30.10,North,0,0.4,4.0,42,0.00,,,0.00,WUHU216HW,2013-02-21 03:29:00,
2013-02-20 22:34:00,40.3,18.9,30.10,North,0,0.7,4.0,42,0.00,,,0.00,WUHU216HW,2013-02-21 03:34:00,
2013-02-20 22:39:00,40.0,18.6,30.10,North,0,1.3,2.5,42,0.00,,,0.00,WUHU216HW,2013-02-21 03:39:00,
2013-02-20 22:44:00,40.0,19.2,30.10,NNE,23,1.3,2.5,43,0.00,,,0.00,WUHU216HW,2013-02-21 03:44:00,
2013-02-20 22:49:00,39.8,19.0,30.10,North,0,1.1,2.0,43,0.00,,,0.00,WUHU216HW,2013-02-21 03:49:00,
2013-02-20 22:54:00,39.6,18.3,30.10,North,0,0.9,3.4,42,0.00,,,0.00,WUHU216HW,2013-02-21 03:54:00,
2013-02-20 22:59:00,39.6,18.3,30.10,North,0,0.7,3.4,42,0.00,,,0.00,WUHU216HW,2013-02-21 03:59:00,
2013-02-20 23:04:00,39.6,18.3,30.09,North,0,0.2,2.7,42,0.00,,,0.00,WUHU216HW,2013-02-21 04:04:00,
2013-02-20 23:09:00,39.6,18.3,30.09,North,0,1.1,1.8,42,0.00,,,0.00,WUHU216HW,2013-02-21 04:09:00,
2013-02-20 23:14:00,39.4,18.6,30.09,NNW,338,0.4,1.8,43,0.00,,,0.00,WUHU216HW,2013-02-21 04:14:00,
2013-02-20 23:19:00,39.2,18.5,30.09,North,0,0.2,2.9,43,0.00,,,0.00,WUHU216HW,2013-02-21 04:19:00,
2013-02-20 23:24:00,39.2,18.5,30.09,NNE,23,2.5,2.9,43,0.00,,,0.00,WUHU216HW,2013-02-21 04:24:00,
2013-02-20 23:29:00,39.1,18.4,30.09,North,0,0.2,2.5,43,0.00,,,0.00,WUHU216HW,2013-02-21 04:29:00,
2013-02-20 23:34:00,39.1,17.3,30.09,North,0,3.8,5.6,41,0.00,,,0.00,WUHU216HW,2013-02-21 04:34:00,
2013-02-20 23:39:00,39.1,17.3,30.09,North,0,0.9,5.6,41,0.00,,,0.00,WUHU216HW,2013-02-21 04:39:00,
2013-02-20 23:44:00,38.9,17.6,30.09,North,0,1.3,3.4,42,0.00,,,0.00,WUHU216HW,2013-02-21 04:44:00,
2013-02-20 23:49:00,38.9,18.2,30.09,NNE,23,0.9,2.5,43,0.00,,,0.00,WUHU216HW,2013-02-21 04:49:00,
2013-02-20 23:54:00,38.9,18.2,30.09,NNW,338,0.4,1.3,43,0.00,,,0.00,WUHU216HW,2013-02-21 04:54:00,
2013-02-20 23:59:00,38.5,17.8,30.09,North,0,0.4,2.2,43,0.00,,,0.00,WUHU216HW,2013-02-21 04:59:00,